When you browse on this site, cookies collect data to enhance your experience and personalize the content and advertising you see.
Visit our Privacy Policy to learn more. By continuing to use the site, you agree to this use of cookies and data.
  • In Netherlands
  • List of Countries
  • For 7 days
  • Water Temperature
  • Satellite Maps
  • Weather Map
  • Weather Widgets
  • user-avatar
    Login

    Hourly Weather Zaranj

    Today, 25 May, Saturday

    Time Temperature Precipitation Wind Pressure Humidity
    00:00 +31°C° 0 mm 3 mps 717 mmHg 24%
    01:00 +30°C° 0 mm 3 mps 717 mmHg 26%
    02:00 +30°C° 0 mm 3 mps 717 mmHg 26%
    03:00 +30°C° 0 mm 3 mps 717 mmHg 27%
    04:00 +29°C° 0 mm 3 mps 717 mmHg 28%
    05:00 +30°C° 0 mm 3 mps 717 mmHg 27%
    06:00 +30°C° 0 mm 3 mps 718 mmHg 26%
    07:00 +31°C° 0 mm 3 mps 718 mmHg 24%
    08:00 +34°C° 0 mm 4 mps 718 mmHg 22%
    09:00 +35°C° 0 mm 4 mps 718 mmHg 20%
    10:00 +37°C° 0 mm 4 mps 718 mmHg 18%
    11:00 +38°C° 0 mm 4 mps 718 mmHg 17%
    12:00 +40°C° 0 mm 4 mps 717 mmHg 16%
    13:00 +40°C° 0 mm 4 mps 717 mmHg 15%
    14:00 +41°C° 0 mm 5 mps 717 mmHg 14%
    15:00 +41°C° 0 mm 5 mps 716 mmHg 14%
    16:00 +42°C° 0 mm 5 mps 716 mmHg 13%
    17:00 +41°C° 0 mm 5 mps 716 mmHg 14%
    18:00 +40°C° 0 mm 5 mps 716 mmHg 14%
    19:00 +40°C° 0 mm 6 mps 716 mmHg 15%
    20:00 +39°C° 0 mm 6 mps 716 mmHg 15%
    21:00 +38°C° 0 mm 7 mps 716 mmHg 15%
    22:00 +36°C° 0 mm 7 mps 716 mmHg 15%
    23:00 +35°C° 0 mm 7 mps 716 mmHg 16%

    Tomorrow, 26 May, Sunday

    Time Temperature Precipitation Wind Pressure Humidity
    00:00 +34°C° 0 mm 7 mps 716 mmHg 17%
    01:00 +34°C° 0 mm 7 mps 716 mmHg 18%
    02:00 +33°C° 0 mm 7 mps 716 mmHg 20%
    03:00 +32°C° 0 mm 8 mps 716 mmHg 23%
    04:00 +31°C° 0 mm 9 mps 716 mmHg 26%
    05:00 +32°C° 0 mm 9 mps 716 mmHg 24%
    06:00 +32°C° 0 mm 10 mps 716 mmHg 23%
    07:00 +32°C° 0 mm 11 mps 717 mmHg 21%
    08:00 +33°C° 0 mm 11 mps 717 mmHg 20%
    09:00 +34°C° 0 mm 11 mps 717 mmHg 18%
    10:00 +37°C° 0 mm 11 mps 717 mmHg 17%
    11:00 +38°C° 0 mm 11 mps 717 mmHg 16%
    12:00 +38°C° 0 mm 11 mps 717 mmHg 15%
    13:00 +39°C° 0 mm 11 mps 716 mmHg 14%
    14:00 +39°C° 0 mm 11 mps 716 mmHg 14%
    15:00 +41°C° 0 mm 11 mps 715 mmHg 13%
    16:00 +40°C° 0 mm 10 mps 715 mmHg 12%
    17:00 +39°C° 0 mm 10 mps 715 mmHg 12%
    18:00 +38°C° 0 mm 9 mps 715 mmHg 12%
    19:00 +37°C° 0 mm 9 mps 715 mmHg 13%
    20:00 +35°C° 0 mm 9 mps 715 mmHg 13%
    21:00 +35°C° 0 mm 9 mps 715 mmHg 14%
    22:00 +34°C° 0 mm 10 mps 715 mmHg 14%
    23:00 +33°C° 0 mm 9 mps 715 mmHg 16%

    Day after tomorrow, 27 May, Monday

    Time Temperature Precipitation Wind Pressure Humidity
    00:00 +33°C° 0 mm 8 mps 715 mmHg 17%
    01:00 +32°C° 0 mm 8 mps 715 mmHg 18%
    02:00 +30°C° 0 mm 7 mps 715 mmHg 19%
    03:00 +30°C° 0 mm 7 mps 715 mmHg 20%
    04:00 +29°C° 0 mm 7 mps 715 mmHg 21%
    05:00 +31°C° 0 mm 8 mps 715 mmHg 20%
    06:00 +31°C° 0 mm 9 mps 715 mmHg 18%
    07:00 +32°C° 0 mm 9 mps 715 mmHg 17%
    08:00 +34°C° 0 mm 10 mps 716 mmHg 15%
    09:00 +36°C° 0 mm 10 mps 716 mmHg 13%
    10:00 +38°C° 0 mm 10 mps 716 mmHg 11%
    11:00 +39°C° 0 mm 10 mps 716 mmHg 10%
    12:00 +40°C° 0 mm 9 mps 716 mmHg 9%
    13:00 +41°C° 0 mm 8 mps 715 mmHg 8%
    14:00 +43°C° 0 mm 8 mps 715 mmHg 7%
    15:00 +43°C° 0 mm 8 mps 715 mmHg 7%
    16:00 +43°C° 0 mm 8 mps 714 mmHg 6%
    17:00 +41°C° 0 mm 8 mps 714 mmHg 7%
    18:00 +40°C° 0 mm 8 mps 714 mmHg 8%
    19:00 +39°C° 0 mm 7 mps 714 mmHg 9%
    20:00 +38°C° 0 mm 7 mps 714 mmHg 10%
    21:00 +37°C° 0 mm 8 mps 715 mmHg 11%
    22:00 +35°C° 0 mm 8 mps 715 mmHg 12%
    23:00 +35°C° 0 mm 7 mps 715 mmHg 12%

    28 May, Tuesday

    Time Temperature Precipitation Wind Pressure Humidity
    00:00 +34°C° 0 mm 7 mps 715 mmHg 13%
    01:00 +33°C° 0 mm 7 mps 714 mmHg 14%
    02:00 +33°C° 0 mm 6 mps 714 mmHg 15%
    03:00 +32°C° 0 mm 6 mps 714 mmHg 16%
    04:00 +32°C° 0 mm 6 mps 714 mmHg 17%
    05:00 +32°C° 0 mm 6 mps 714 mmHg 16%
    06:00 +33°C° 0 mm 7 mps 715 mmHg 15%
    07:00 +33°C° 0 mm 8 mps 715 mmHg 14%
    08:00 +35°C° 0 mm 8 mps 715 mmHg 13%
    09:00 +37°C° 0 mm 9 mps 716 mmHg 11%
    10:00 +39°C° 0 mm 10 mps 716 mmHg 9%
    11:00 +40°C° 0 mm 10 mps 716 mmHg 8%
    12:00 +42°C° 0 mm 10 mps 715 mmHg 8%
    13:00 +43°C° 0 mm 10 mps 715 mmHg 7%
    14:00 +44°C° 0 mm 10 mps 715 mmHg 7%
    15:00 +44°C° 0 mm 10 mps 714 mmHg 6%
    16:00 +44°C° 0 mm 10 mps 714 mmHg 6%
    17:00 +43°C° 0 mm 10 mps 714 mmHg 7%
    18:00 +42°C° 0 mm 10 mps 714 mmHg 8%
    19:00 +40°C° 0 mm 10 mps 714 mmHg 9%
    20:00 +39°C° 0 mm 10 mps 714 mmHg 10%
    21:00 +38°C° 0 mm 11 mps 714 mmHg 11%
    22:00 +37°C° 0 mm 11 mps 715 mmHg 12%
    23:00 +36°C° 0 mm 11 mps 714 mmHg 14%

    29 May, Wednesday

    Time Temperature Precipitation Wind Pressure Humidity
    00:00 +34°C° 0 mm 12 mps 714 mmHg 15%
    01:00 +34°C° 0 mm 12 mps 714 mmHg 17%
    02:00 +33°C° 0 mm 12 mps 714 mmHg 21%
    03:00 +32°C° 0 mm 12 mps 714 mmHg 25%
    04:00 +31°C° 0 mm 12 mps 714 mmHg 29%
    05:00 +31°C° 0 mm 12 mps 714 mmHg 29%
    06:00 +32°C° 0 mm 12 mps 714 mmHg 28%
    07:00 +32°C° 0 mm 13 mps 715 mmHg 28%
    08:00 +33°C° 0 mm 13 mps 715 mmHg 25%
    09:00 +36°C° 0 mm 13 mps 715 mmHg 21%
    10:00 +37°C° 0 mm 14 mps 715 mmHg 18%
    11:00 +39°C° 0 mm 13 mps 715 mmHg 16%
    12:00 +41°C° 0 mm 13 mps 714 mmHg 15%
    13:00 +42°C° 0 mm 12 mps 714 mmHg 13%
    14:00 +42°C° 0 mm 12 mps 714 mmHg 12%
    15:00 +42°C° 0 mm 12 mps 713 mmHg 12%
    16:00 +43°C° 0 mm 12 mps 713 mmHg 11%
    17:00 +42°C° 0 mm 11 mps 713 mmHg 13%
    18:00 +41°C° 0 mm 11 mps 713 mmHg 14%
    19:00 +39°C° 0 mm 11 mps 713 mmHg 15%
    20:00 +38°C° 0 mm 11 mps 713 mmHg 17%
    21:00 +37°C° 0 mm 11 mps 714 mmHg 18%
    22:00 +36°C° 0 mm 11 mps 714 mmHg 19%
    23:00 +36°C° 0 mm 11 mps 714 mmHg 20%

    30 May, Thursday

    Time Temperature Precipitation Wind Pressure Humidity
    00:00 +34°C° 0 mm 11 mps 713 mmHg 22%
    01:00 +33°C° 0 mm 11 mps 713 mmHg 24%
    02:00 +32°C° 0 mm 11 mps 713 mmHg 26%
    03:00 +32°C° 0 mm 11 mps 713 mmHg 28%
    04:00 +31°C° 0 mm 12 mps 713 mmHg 29%
    05:00 +31°C° 0 mm 12 mps 713 mmHg 29%
    06:00 +31°C° 0 mm 12 mps 714 mmHg 29%
    07:00 +31°C° 0 mm 12 mps 714 mmHg 29%
    08:00 +33°C° 0 mm 12 mps 714 mmHg 26%
    09:00 +34°C° 0 mm 12 mps 715 mmHg 23%
    10:00 +37°C° 0 mm 12 mps 715 mmHg 20%
    11:00 +38°C° 0 mm 11 mps 714 mmHg 18%
    12:00 +39°C° 0 mm 11 mps 714 mmHg 16%
    13:00 +40°C° 0 mm 10 mps 713 mmHg 14%
    14:00 +42°C° 0 mm 10 mps 713 mmHg 14%
    15:00 +42°C° 0 mm 10 mps 713 mmHg 14%
    16:00 +42°C° 0 mm 9 mps 713 mmHg 14%
    17:00 +40°C° 0 mm 9 mps 713 mmHg 15%
    18:00 +40°C° 0 mm 8 mps 713 mmHg 16%
    19:00 +39°C° 0 mm 7 mps 713 mmHg 17%
    20:00 +38°C° 0 mm 7 mps 713 mmHg 18%
    21:00 +38°C° 0 mm 6 mps 714 mmHg 19%
    22:00 +36°C° 0 mm 6 mps 714 mmHg 20%
    23:00 +34°C° 0 mm 8 mps 714 mmHg 25%
    Show more